DW2613 Toddville MD US current weather conditions

sailwx.info

Wind from 059

Air temperature 2.2° C
Dewpoint 1.2° C

Last reported at 2019-Dec-13 12:54 UTC.
Time now 2019-Dec-13 13:25 UTC

Location: N 38°18' W 076°05'.
View on Google Maps.

See reports from other nearby stations

  
Tides and Currents Weather Stations Pressure Air Temp Water Temp Dewpoint Dewpoint Depression Visibility Wind Speed Wind Dir Waves Ship Positions
date/time (UTC)wind fromknots sea level pressurealtimeterstation pressurevisibilityair tempwater tempwave heightnotes
2019-Dec-13 13:03 051 2.8
2019-Dec-13 12:54 059 2.2
2019-Dec-13 12:44 053 1.7
2019-Dec-13 12:33 011 1.7
2019-Dec-13 12:24 014 1.7
2019-Dec-13 12:13 355 1.7
2019-Dec-13 12:03 355 1.7
2019-Dec-13 11:53 346 1.7
2019-Dec-13 11:43 345 1.1
2019-Dec-13 11:32 347 1.1
2019-Dec-13 11:22 005 1.1
2019-Dec-13 11:12 321 1.1
2019-Dec-13 11:02 348 1.1
2019-Dec-13 10:52 336 0.6
2019-Dec-13 10:42 329 0.6
2019-Dec-13 10:32 338 0.6
2019-Dec-13 10:22 333 0.6
2019-Dec-13 10:11 312 0.6
2019-Dec-13 10:01 313 -0.0
2019-Dec-13 09:51 324 -0.0
2019-Dec-13 09:40 321 -0.0
2019-Dec-13 09:30 355 -0.0
2019-Dec-13 09:19 344 -0.6
2019-Dec-13 09:10 -0.6
2019-Dec-13 08:59 -0.6
2019-Dec-13 08:49 040 -1.1
2019-Dec-13 08:39 040 -1.1
2019-Dec-13 08:29 046 -1.1
2019-Dec-13 08:19 046 -1.1
2019-Dec-13 08:09 046 -1.1
2019-Dec-13 08:00 046 -1.1
2019-Dec-13 07:50 046 -1.1
2019-Dec-13 07:40 046 -1.1
2019-Dec-13 07:30 046 -0.6
2019-Dec-13 07:20 046 -0.6
2019-Dec-13 07:00 046 -0.6
2019-Dec-13 06:51 046 -0.6
2019-Dec-13 06:41 046 -0.6
2019-Dec-13 06:31 046 -0.6
2019-Dec-13 06:21 046 -0.6
2019-Dec-13 06:11 046 -0.6
2019-Dec-13 06:01 046 -0.6
2019-Dec-13 05:51 046 -0.6
2019-Dec-13 05:41 046 -0.6
2019-Dec-13 05:30 046 -0.6
2019-Dec-13 05:20 046 -0.0
2019-Dec-13 05:01 046 -0.0
2019-Dec-13 04:50 046 -0.0
2019-Dec-13 04:40 032 -0.0
2019-Dec-13 04:30 032 -0.0
2019-Dec-13 04:20 032 -0.0
2019-Dec-13 04:10 030 -0.0
2019-Dec-13 04:00 030 -0.0
2019-Dec-13 03:49 030 -0.0
2019-Dec-13 03:39 030 -0.0
2019-Dec-13 03:29 030 -0.0
2019-Dec-13 03:19 030 -0.0
2019-Dec-13 03:09 019 -0.0
2019-Dec-13 02:59 018 -0.6
2019-Dec-13 02:50 018 -0.6
2019-Dec-13 02:40 018 -0.0
2019-Dec-13 02:30 018 -0.0
2019-Dec-13 02:20 018 -0.0
2019-Dec-13 02:10 018 -0.0
2019-Dec-13 02:00 018 -0.0
2019-Dec-13 01:50 020 -0.0
2019-Dec-13 01:40 022 -0.0
2019-Dec-13 01:29 021 -0.0
2019-Dec-13 01:19 064 -0.0
2019-Dec-13 01:09 033 -0.0
2019-Dec-13 00:58 344 -0.0
2019-Dec-13 00:48 294 -0.0
2019-Dec-13 00:38 294 -0.6
2019-Dec-13 00:28 294 -0.6
2019-Dec-13 00:18 294 -0.6
2019-Dec-13 00:08 294 -0.6
2019-Dec-12 23:58 294 -0.6
2019-Dec-12 23:48 294 -0.6
2019-Dec-12 23:39 044 -0.6
2019-Dec-12 23:28 044 -0.6
2019-Dec-12 23:18 044 -0.0
2019-Dec-12 23:08 044 -0.0
2019-Dec-12 22:58 044 -0.0
2019-Dec-12 22:47 044 -0.0
2019-Dec-12 22:37 044 0.6
2019-Dec-12 22:27 044 0.6
2019-Dec-12 22:17 044 1.1
2019-Dec-12 22:07 044 1.7
2019-Dec-12 21:57 044 1.7
2019-Dec-12 21:47 044 2.2
2019-Dec-12 21:37 044 2.8
2019-Dec-12 21:27 044 3.3
2019-Dec-12 21:17 044 3.9
2019-Dec-12 21:07 044 3.9
2019-Dec-12 20:57 044 3.9
2019-Dec-12 20:47 044 3.9
2019-Dec-12 20:36 044 3.9
2019-Dec-12 20:27 044 3.9
2019-Dec-12 20:17 029 3.9
2019-Dec-12 20:07 032 3.9
2019-Dec-12 19:57 043 3.9
2019-Dec-12 19:46 064 3.9
2019-Dec-12 19:35 073 3.3
2019-Dec-12 19:26 103 3.3
2019-Dec-12 19:15 077 3.3
2019-Dec-12 19:05 121 3.3
2019-Dec-12 18:55 121 3.3
2019-Dec-12 18:45 074 3.3
2019-Dec-12 18:35 068 0 3.3
2019-Dec-12 18:25 090 3.3
2019-Dec-12 18:15 098 0 gusting 3 2.8
2019-Dec-12 18:05 087 0 gusting 4 2.8
2019-Dec-12 17:55 030 0 gusting 5 2.8
2019-Dec-12 17:45 078 0 gusting 4 3.3
2019-Dec-12 17:35 2.8
2019-Dec-12 17:25 064 0 gusting 6 2.8
2019-Dec-12 17:15 069 0 gusting 3 2.8
2019-Dec-12 17:05 349 0 gusting 6 2.2
2019-Dec-12 16:55 044 0 gusting 5 2.2
2019-Dec-12 16:45 055 2 gusting 6 2.2
2019-Dec-12 16:36 063 2 gusting 6 2.2
2019-Dec-12 16:25 056 2 gusting 6 2.2
2019-Dec-12 16:15 065 1 gusting 6 2.2
2019-Dec-12 16:04 048 0 gusting 6 2.2
2019-Dec-12 15:55 064 1 gusting 6 1.7
2019-Dec-12 15:45 051 0 gusting 4 1.7
2019-Dec-12 15:35 050 0 gusting 6 1.7
2019-Dec-12 15:24 063 1 gusting 6 1.7
2019-Dec-12 15:15 055 0 gusting 5 1.7
2019-Dec-12 15:04 034 0 gusting 3 1.1
2019-Dec-12 14:55 057 0 gusting 6 1.1
2019-Dec-12 14:45 046 0 gusting 6 1.1
2019-Dec-12 14:35 0.6
2019-Dec-12 14:25 355 0 gusting 7 0.6
2019-Dec-12 14:15 023 1 gusting 7 0.6
2019-Dec-12 14:05 0.6
2019-Dec-12 13:55 040 -0.0
2019-Dec-12 13:44 052 0 gusting 5 -0.0
2019-Dec-12 13:34 051 -0.0
2019-Dec-12 13:24 053 -0.6
2019-Dec-12 13:13 044 -1.1
2019-Dec-12 13:03 051 -2.2
2019-Dec-12 12:53 042 -2.8
2019-Dec-12 12:43 042 -2.8
2019-Dec-12 12:33 042 -2.8
2019-Dec-12 12:22 042 -2.8
2019-Dec-12 12:12 042 -2.8
2019-Dec-12 12:02 042 -2.8
2019-Dec-12 11:52 042 -2.2
2019-Dec-12 11:42 042 -2.2
2019-Dec-12 11:32 042 -2.2
2019-Dec-12 11:22 041 -1.7
2019-Dec-12 11:12 344 -1.7
2019-Dec-12 11:02 039 -1.7
2019-Dec-12 10:52 036 -1.7
2019-Dec-12 10:42 340 -1.1
2019-Dec-12 10:32 339 -1.1
2019-Dec-12 10:23 323 -1.1
2019-Dec-12 10:13 350 -1.7
2019-Dec-12 10:03 005 -1.7
2019-Dec-12 09:52 325 -1.7
2019-Dec-12 09:43 325 -1.7
2019-Dec-12 09:32 325 -1.7
2019-Dec-12 09:23 325 -1.7
2019-Dec-12 09:12 325 -1.1
2019-Dec-12 09:03 325 -1.1
2019-Dec-12 08:52 321 -1.1
2019-Dec-12 08:42 321 -1.1
2019-Dec-12 08:32 322 -0.6
2019-Dec-12 08:22 322 -0.6
2019-Dec-12 08:12 322 -0.6
2019-Dec-12 08:02 322 -0.6
2019-Dec-12 07:52 255 -0.6
2019-Dec-12 07:42 253 -0.6
2019-Dec-12 07:32 253 -1.1
2019-Dec-12 07:21 255 -0.6
2019-Dec-12 07:01 255 -0.0
2019-Dec-12 06:51 255 -0.0
2019-Dec-12 06:41 255 -0.0
2019-Dec-12 06:31 255 0.6
2019-Dec-12 06:21 270 0.6
2019-Dec-12 06:11 269 1.1
2019-Dec-12 06:01 277 1.1
2019-Dec-12 05:51 318 0 gusting 6 1.1
2019-Dec-12 05:42 275 1 gusting 8 1.1
2019-Dec-12 05:32 256 1 gusting 8 1.1
2019-Dec-12 05:22 288 2 gusting 8 1.1
2019-Dec-12 05:12 329 2 gusting 8 1.1
2019-Dec-12 05:02 253 0 gusting 6 1.1
2019-Dec-12 04:52 282 0 gusting 7 1.1
2019-Dec-12 04:42 1.1
2019-Dec-12 04:32 338 2 gusting 11 1.7
2019-Dec-12 04:22 305 0 gusting 9 1.7
2019-Dec-12 04:12 285 2 gusting 9 1.7
2019-Dec-12 04:02 297 1 gusting 6 1.7
2019-Dec-12 03:52 329 1.7
2019-Dec-12 03:42 053 1.7
2019-Dec-12 03:32 324 0 gusting 7 1.7
2019-Dec-12 03:21 346 0 gusting 7 1.7
2019-Dec-12 03:11 302 1.1
2019-Dec-12 03:01 283 1.1
2019-Dec-12 02:51 242 1.1
2019-Dec-12 02:42 280 -0.0
2019-Dec-12 02:32 287 -0.0
2019-Dec-12 02:22 288 -0.0
2019-Dec-12 02:12 288 -0.0
2019-Dec-12 02:02 287 -0.6
2019-Dec-12 01:52 288 -1.1
2019-Dec-12 01:41 288 -1.1
2019-Dec-12 01:31 288 -1.1
2019-Dec-12 01:21 288 -1.1
2019-Dec-12 01:11 288 -1.1
2019-Dec-12 01:01 288 -1.1
2019-Dec-12 00:51 288 -1.1
2019-Dec-12 00:41 288 -1.1
2019-Dec-12 00:31 288 -0.6
2019-Dec-12 00:21 288 -0.6
2019-Dec-12 00:11 288 -0.6
2019-Dec-12 00:01 288 -0.6
2019-Dec-11 23:51 288 -0.0
2019-Dec-11 23:41 288 -0.0
2019-Dec-11 23:31 288 -0.0
2019-Dec-11 23:21 288 0.6
2019-Dec-11 23:11 288 1.1
2019-Dec-11 23:02 288 1.1
2019-Dec-11 22:52 287 1.7
2019-Dec-11 22:41 288 2.2
2019-Dec-11 22:31 288 2.8
2019-Dec-11 22:21 300 2.8
2019-Dec-11 22:11 300 2.8
2019-Dec-11 22:01 311 2.8
2019-Dec-11 21:50 251 0 gusting 5 3.3
2019-Dec-11 21:40 238 0 gusting 4 3.3
2019-Dec-11 21:29 248 3.9
2019-Dec-11 21:20 280 0 gusting 5 3.9
2019-Dec-11 21:10 247 0 gusting 5 3.9
2019-Dec-11 21:00 247 0 gusting 6 4.4
2019-Dec-11 20:50 259 1 gusting 6 4.4
2019-Dec-11 20:41 277 1 gusting 9 4.4
2019-Dec-11 20:31 219 1 gusting 9 4.4
2019-Dec-11 20:21 281 3 gusting 8 3.9
2019-Dec-11 20:11 306 2 gusting 7 4.4
2019-Dec-11 20:01 275 1 gusting 12 4.4
2019-Dec-11 19:51 272 4 gusting 12 3.9
2019-Dec-11 19:41 281 3 gusting 9 3.9
2019-Dec-11 19:32 275 2 gusting 12 3.9
2019-Dec-11 19:21 273 3 gusting 12 3.9
2019-Dec-11 19:11 246 4 gusting 9 3.9
2019-Dec-11 19:02 223 3 gusting 10 3.9
2019-Dec-11 18:51 223 3 gusting 10 3.9
2019-Dec-11 18:41 200 3 gusting 13 4.4
2019-Dec-11 18:31 303 3 gusting 13 4.4
2019-Dec-11 18:21 266 4 gusting 11 4.4
2019-Dec-11 18:11 242 3 gusting 10 4.4
2019-Dec-11 18:02 221 4 gusting 9 4.4
2019-Dec-11 17:51 155 3 gusting 9 4.4
2019-Dec-11 17:41 212 3 gusting 9 3.9
2019-Dec-11 17:31 290 2 gusting 8 3.9
2019-Dec-11 17:21 339 3 gusting 8 3.9
2019-Dec-11 17:11 273 2 gusting 7 3.9
2019-Dec-11 17:01 272 3 gusting 9 3.9
2019-Dec-11 16:50 273 2 gusting 9 3.9
2019-Dec-11 16:40 267 2 gusting 9 3.9
2019-Dec-11 16:31 275 3 gusting 9 3.3
2019-Dec-11 16:20 325 2 gusting 9 3.3
2019-Dec-11 16:10 245 3 gusting 7 2.8
2019-Dec-11 16:00 273 2 gusting 8 2.8
2019-Dec-11 15:50 283 2 gusting 8 2.8
2019-Dec-11 15:40 302 2 gusting 13 2.8
2019-Dec-11 15:30 290 3 gusting 13 2.8
2019-Dec-11 15:19 218 2 gusting 10 2.8
2019-Dec-11 15:09 296 2 gusting 8 2.2
2019-Dec-11 14:59 246 1 gusting 8 2.2
2019-Dec-11 14:49 274 0 gusting 5 2.2
2019-Dec-11 14:39 292 1.7
2019-Dec-11 14:30 254 1.1
2019-Dec-11 14:20 254 1.1
2019-Dec-11 14:09 254 1.1
2019-Dec-11 13:59 255 1.1
2019-Dec-11 13:49 254 1.1
2019-Dec-11 13:39 254 1.1
2019-Dec-11 13:29 254 0.6
2019-Dec-11 13:19 253 0.6
2019-Dec-11 13:09 275 0.6